This is the latest recevied weather packets stored in our database for station/object IU1OLT-6. If no packets are shown the sender has not sent any weather packets the latest 10 day(s).
| Time | Temp. | Humidity | Pressure | Rain* | Wind** | Luminosity | Snow |
|---|---|---|---|---|---|---|---|
| 1788309491 | 15.56° C | 69% | 1015.8 hPa | 0 mm | - | - | - |
| 1788308579 | 15.56° C | 68% | 1015.7 hPa | 0 mm | - | - | - |
| 1788307628 | 15° C | 69% | 1015.8 hPa | 0 mm | - | - | - |
| 1788306667 | 15° C | 71% | 1015.9 hPa | 0 mm | - | - | - |
| 1788306659 | 15° C | 71% | 1015.9 hPa | 0 mm | - | - | - |
| 1788305699 | 15° C | 74% | 1016 hPa | 0 mm | - | - | - |
| 1788304739 | 15.56° C | 69% | 1016 hPa | 0 mm | - | - | - |
| 1788303827 | 16.11° C | 66% | 1016 hPa | 0 mm | - | - | - |
| 1788302915 | 15.56° C | 67% | 1016.2 hPa | 0 mm | - | - | - |
| 1788301955 | 16.11° C | 63% | 1016.1 hPa | 0 mm | - | - | - |
| 1788301043 | 16.11° C | 61% | 1016.2 hPa | 0 mm | - | - | - |
| 1788300131 | 16.11° C | 60% | 1016.1 hPa | 0 mm | - | - | - |
| 1788299171 | 16.11° C | 56% | 1016.1 hPa | 0 mm | - | - | - |
| 1788298211 | 15.56° C | 76% | 1016.3 hPa | 0 mm | - | - | - |
| 1788297252 | 15° C | 84% | 1016.1 hPa | 0 mm | - | - | - |
| 1788296339 | 14.44° C | 89% | 1016.2 hPa | 0 mm | - | - | - |
| 1788295428 | 15° C | 90% | 1016.3 hPa | 0 mm | - | - | - |
| 1788294703 | 15° C | 91% | 1016.2 hPa | 0 mm | - | - | - |
| 1788294467 | 15° C | 91% | 1016.2 hPa | 0 mm | - | - | - |
| 1788293507 | 15° C | 91% | 1016.2 hPa | 0 mm | - | - | - |
| 1788292548 | 15° C | 91% | 1016.2 hPa | 0 mm | - | - | - |
| 1788291635 | 15° C | 87% | 1016.2 hPa | 0 mm | - | - | - |
| 1788289764 | 15° C | 86% | 1015.8 hPa | 0 mm | - | - | - |
| 1788288804 | 15.56° C | 86% | 1015.6 hPa | 0 mm | - | - | - |
| 1788287891 | 15° C | 91% | 1015.5 hPa | 0 mm | - | - | - |
* Rain latest hour (hover to see other rain measurements)
** Current wind speed in m/s (hover to see current wind gust speed)